Weather History for KJGG - October, 2012

Change the Weather History Date:

Saturday, October 20, 2012

  Actual Average Record
Temperature  
Mean Temperature 63 °F -  
Max Temperature 73 °F 67 °F 87 °F (1984)
Min Temperature 53 °F 45 °F 27 °F (1981)
Degree Days  
Heating Degree Days 2    
Growing Degree Days 13 (Base 50)    
Moisture  
Dew Point 46 °F    
Average Humidity 56    
Maximum Humidity 72    
Minimum Humidity 38    
Precipitation  
Precipitation 0.00 in - - ()
Sea Level Pressure  
Sea Level Pressure 29.81 in    
Wind  
Wind Speed 5 mph (West)    
Max Wind Speed 9 mph    
Max Gust Speed 23 mph    
Visibility 10 miles    
Events      
Averages and records for this station are not official NWS values.
T = Trace of Precipitation, MM = Missing Value Source: NWS Daily Summary

Daily Weather History Graph

Daily Weather History Graph

Search for Another Location

Airport or City:

Trip Planner

Search our weather history database for the weather conditions in past years. The results will help you decide how hot, cold, wet, or windy it might be!

Date:

Astronomy

Oct. 20, 2012 Rise Set
Actual Time 7:19 AM EDT 6:22 PM EDT
Civil Twilight 6:53 AM EDT 6:49 PM EDT
Nautical Twilight 6:23 AM EDT 7:19 PM EDT
Astronomical Twilight 5:52 AM EDT 7:49 PM EDT
Moon 12:50 PM EDT (10/20) 11:09 PM EDT (10/20)
Length of Visible Light 11h 55m
Length of Day
11h 02m
Waxing Crescent, 34% of the Moon is Illuminated
Oct 20
Waxing Crescent
Oct 21
First Quarter
Oct 29
Full
Nov 6
Last Quarter
Nov 13
New

Hourly Weather History & Observations

Time (EDT) Temp. Dew Point Humidity Pressure Visibility Wind Dir Wind Speed Gust Speed Precip Events Conditions
12:15 AM 60.8 °F 44.6 °F 55% 29.75 in 10.0 mi WSW 5.8 mph - N/A   Clear
12:35 AM 60.8 °F 42.8 °F 52% 29.75 in 10.0 mi SW 4.6 mph - N/A   Clear
12:55 AM 60.8 °F 44.6 °F 55% 29.75 in 10.0 mi SW 6.9 mph - N/A   Clear
1:15 AM 60.8 °F 44.6 °F 55% 29.75 in 10.0 mi WSW 4.6 mph - N/A   Clear
1:35 AM 59.0 °F 44.6 °F 59% 29.74 in 10.0 mi SW 4.6 mph - N/A   Clear
1:55 AM 59.0 °F 44.6 °F 59% 29.74 in 10.0 mi SSW 5.8 mph - N/A   Clear
2:15 AM 60.8 °F 42.8 °F 52% 29.74 in 10.0 mi WSW 8.1 mph - N/A   Clear
2:35 AM 60.8 °F 42.8 °F 52% 29.74 in 10.0 mi WSW 5.8 mph - N/A   Clear
2:55 AM 60.8 °F 42.8 °F 52% 29.75 in 10.0 mi SW 5.8 mph - N/A   Clear
3:15 AM 60.8 °F 42.8 °F 52% 29.75 in 10.0 mi SW 4.6 mph - N/A   Clear
3:35 AM 60.8 °F 42.8 °F 52% 29.75 in 10.0 mi SW 5.8 mph - N/A   Clear
3:55 AM 59.0 °F 42.8 °F 55% 29.75 in 10.0 mi WSW 5.8 mph - N/A   Clear
4:15 AM 60.8 °F 42.8 °F 52% 29.75 in 10.0 mi SW 8.1 mph 23.0 mph N/A   Clear
4:35 AM 59.0 °F 42.8 °F 55% 29.75 in 10.0 mi SW 6.9 mph - N/A   Clear
4:55 AM 57.2 °F 42.8 °F 59% 29.75 in 10.0 mi SW 6.9 mph - N/A   Clear
5:15 AM 57.2 °F 42.8 °F 59% 29.75 in 10.0 mi Calm Calm - N/A   Clear
5:35 AM 57.2 °F 42.8 °F 59% 29.76 in 10.0 mi SW 4.6 mph - N/A   Clear
5:55 AM 57.2 °F 44.6 °F 63% 29.77 in 10.0 mi Calm Calm - N/A   Clear
6:15 AM 55.4 °F 44.6 °F 67% 29.77 in 10.0 mi Calm Calm - N/A   Clear
6:35 AM 55.4 °F 44.6 °F 67% 29.77 in 10.0 mi SW 4.6 mph - N/A   Clear
6:55 AM 53.6 °F 44.6 °F 72% 29.78 in 10.0 mi SW 4.6 mph - N/A   Clear
7:15 AM 55.4 °F 44.6 °F 67% 29.79 in 10.0 mi WSW 5.8 mph - N/A   Clear
7:35 AM 53.6 °F 44.6 °F 72% 29.79 in 10.0 mi WSW 4.6 mph - N/A   Clear
7:55 AM 53.6 °F 44.6 °F 72% 29.80 in 10.0 mi Calm Calm - N/A   Clear
8:15 AM 53.6 °F 44.6 °F 72% 29.80 in 10.0 mi WSW 4.6 mph - N/A   Clear
8:35 AM 55.4 °F 44.6 °F 67% 29.81 in 10.0 mi SW 3.5 mph - N/A   Clear
8:55 AM 55.4 °F 44.6 °F 67% 29.81 in 10.0 mi SW 3.5 mph - N/A   Clear
9:15 AM 55.4 °F 44.6 °F 67% 29.81 in 10.0 mi WSW 4.6 mph - N/A   Clear
9:35 AM 57.2 °F 46.4 °F 67% 29.81 in 10.0 mi WNW 4.6 mph - N/A   Clear
9:55 AM 60.8 °F 46.4 °F 59% 29.82 in 10.0 mi WNW 5.8 mph - N/A   Clear
10:15 AM 62.6 °F 46.4 °F 55% 29.81 in 10.0 mi WNW 6.9 mph - N/A   Clear
10:35 AM 64.4 °F 46.4 °F 52% 29.82 in 10.0 mi NW 4.6 mph - N/A   Clear
10:55 AM 64.4 °F 46.4 °F 52% 29.82 in 10.0 mi WNW 4.6 mph - N/A   Clear
11:15 AM 66.2 °F 46.4 °F 49% 29.82 in 10.0 mi WNW 4.6 mph - N/A   Clear
11:35 AM 66.2 °F 46.4 °F 49% 29.82 in 10.0 mi Calm Calm - N/A   Clear
11:55 AM 69.8 °F 46.4 °F 43% 29.82 in 10.0 mi NNW 5.8 mph - N/A   Clear
12:15 PM 71.6 °F 46.4 °F 41% 29.81 in 10.0 mi North 3.5 mph - N/A   Clear
12:35 PM 71.6 °F 46.4 °F 41% 29.80 in 10.0 mi North 3.5 mph - N/A   Clear
12:55 PM 71.6 °F 44.6 °F 38% 29.79 in 10.0 mi North 3.5 mph - N/A   Clear
1:15 PM 73.4 °F 48.2 °F 41% 29.79 in 10.0 mi SE 4.6 mph - N/A   Clear
1:35 PM 71.6 °F 51.8 °F 50% 29.79 in 10.0 mi SSE 5.8 mph - N/A   Clear
1:55 PM 71.6 °F 50.0 °F 46% 29.79 in 10.0 mi South 5.8 mph - N/A   Clear
2:15 PM 73.4 °F 48.2 °F 41% 29.78 in 10.0 mi West 5.8 mph - N/A   Clear
2:35 PM 73.4 °F 46.4 °F 38% 29.78 in 10.0 mi West 4.6 mph - N/A   Clear
2:55 PM 71.6 °F 44.6 °F 38% 29.78 in 10.0 mi WNW 8.1 mph - N/A   Clear
3:15 PM 73.4 °F 46.4 °F 38% 29.78 in 10.0 mi WNW 8.1 mph - N/A   Clear
3:35 PM 73.4 °F 46.4 °F 38% 29.78 in 10.0 mi WNW 8.1 mph - N/A   Clear
3:55 PM 73.4 °F 46.4 °F 38% 29.78 in 10.0 mi NW 6.9 mph - N/A   Clear
4:15 PM 73.4 °F 46.4 °F 38% 29.78 in 10.0 mi WNW 6.9 mph - N/A   Clear
4:35 PM 71.6 °F 46.4 °F 41% 29.78 in 10.0 mi West 4.6 mph - N/A   Clear
4:55 PM 71.6 °F 46.4 °F 41% 29.79 in 10.0 mi West 4.6 mph - N/A   Scattered Clouds
5:15 PM 71.6 °F 48.2 °F 43% 29.80 in 10.0 mi West 4.6 mph - N/A   Clear
5:35 PM 69.8 °F 48.2 °F 46% 29.80 in 10.0 mi WNW 3.5 mph - N/A   Scattered Clouds
5:55 PM 66.2 °F 51.8 °F 60% 29.81 in 10.0 mi Calm Calm - N/A   Scattered Clouds
6:15 PM 64.4 °F 53.6 °F 68% 29.81 in 10.0 mi Calm Calm - N/A   Mostly Cloudy
6:35 PM 62.6 °F 53.6 °F 72% 29.82 in 10.0 mi Calm Calm - N/A   Mostly Cloudy
6:55 PM 62.6 °F 53.6 °F 72% 29.84 in 10.0 mi Calm Calm - N/A   Mostly Cloudy
7:15 PM 62.6 °F 51.8 °F 68% 29.85 in 10.0 mi WNW 6.9 mph - N/A   Mostly Cloudy
7:35 PM 62.6 °F 50.0 °F 63% 29.85 in 10.0 mi WNW 6.9 mph - N/A   Scattered Clouds
7:55 PM 62.6 °F 48.2 °F 59% 29.86 in 10.0 mi WNW 5.8 mph - N/A   Scattered Clouds
8:15 PM 60.8 °F 48.2 °F 63% 29.87 in 10.0 mi WNW 3.5 mph - N/A   Scattered Clouds
8:35 PM 60.8 °F 48.2 °F 63% 29.88 in 10.0 mi NW 8.1 mph - N/A   Scattered Clouds
8:55 PM 60.8 °F 48.2 °F 63% 29.88 in 10.0 mi NW 9.2 mph - N/A   Clear
9:15 PM 60.8 °F 46.4 °F 59% 29.89 in 10.0 mi NW 9.2 mph - N/A   Scattered Clouds
9:35 PM 60.8 °F 46.4 °F 59% 29.90 in 10.0 mi NW 8.1 mph - N/A   Scattered Clouds
9:55 PM 59.0 °F 46.4 °F 63% 29.90 in 10.0 mi NW 9.2 mph - N/A   Clear
10:15 PM 59.0 °F 44.6 °F 59% 29.90 in 10.0 mi NW 8.1 mph - N/A   Clear
10:35 PM 57.2 °F 44.6 °F 63% 29.91 in 10.0 mi NW 8.1 mph - N/A   Clear
10:55 PM 57.2 °F 44.6 °F 63% 29.92 in 10.0 mi NW 8.1 mph - N/A   Clear
11:15 PM 57.2 °F 44.6 °F 63% 29.92 in 10.0 mi NNW 8.1 mph - N/A   Clear
11:35 PM 57.2 °F 44.6 °F 63% 29.92 in 10.0 mi NNW 5.8 mph - N/A   Clear
11:55 PM 55.4 °F 46.4 °F 72% 29.92 in 10.0 mi NNW 4.6 mph - N/A   Clear